Time,TemperatureF,DewpointF,PressureIn,WindDirection,WindDirectionDegrees,WindSpeedMPH,WindSpeedGustMPH,Humidity,HourlyPrecipIn,Conditions,Clouds,dailyrainin,SoftwareType,DateUTC
2013-03-19 00:02:00,28.0,18.0,-100.00,South,180,1.0,3.0,66,-99.99,,,0.00,,2013-03-19 06:02:00,
2013-03-19 00:12:00,27.0,18.0,-100.00,South,175,1.0,3.0,70,-99.99,,,0.00,,2013-03-19 06:12:00,
2013-03-19 00:22:00,27.0,18.0,-100.00,South,175,1.0,3.0,70,-99.99,,,0.00,,2013-03-19 06:22:00,
2013-03-19 00:32:00,27.0,19.0,-100.00,North,-999,0.0,0.0,71,-99.99,,,0.00,,2013-03-19 06:32:00,
2013-03-19 00:42:00,27.0,19.0,-100.00,North,-999,0.0,0.0,71,-99.99,,,0.00,,2013-03-19 06:42:00,
2013-03-19 00:52:00,27.0,19.0,-100.00,North,-999,0.0,0.0,72,-99.99,,,0.00,,2013-03-19 06:52:00,
2013-03-19 01:02:00,27.0,19.0,-100.00,North,-999,0.0,0.0,72,-99.99,,,0.00,,2013-03-19 07:02:00,
2013-03-19 01:12:00,26.0,19.0,-100.00,North,-999,0.0,0.0,75,-99.99,,,0.00,,2013-03-19 07:12:00,
2013-03-19 01:21:00,26.0,19.0,-100.00,North,-999,0.0,0.0,75,-99.99,,,0.00,,2013-03-19 07:21:00,
2013-03-19 01:32:00,26.0,19.0,-100.00,North,-999,0.0,0.0,75,-99.99,,,0.00,,2013-03-19 07:32:00,
2013-03-19 01:42:00,26.0,19.0,-100.00,North,-999,0.0,0.0,75,-99.99,,,0.00,,2013-03-19 07:42:00,
2013-03-19 01:52:00,27.0,20.0,-100.00,North,-999,0.0,0.0,75,-99.99,,,0.00,,2013-03-19 07:52:00,
2013-03-19 02:02:00,27.0,20.0,-100.00,North,-999,0.0,0.0,75,-99.99,,,0.00,,2013-03-19 08:02:00,
2013-03-19 02:12:00,26.0,19.0,-100.00,South,170,1.0,3.0,74,-99.99,,,0.00,,2013-03-19 08:12:00,
2013-03-19 02:22:00,26.0,19.0,-100.00,South,170,1.0,3.0,74,-99.99,,,0.00,,2013-03-19 08:22:00,
2013-03-19 02:32:00,26.0,19.0,-100.00,NE,55,3.0,6.0,75,-99.99,,,0.00,,2013-03-19 08:32:00,
2013-03-19 02:42:00,26.0,19.0,-100.00,NE,55,3.0,6.0,75,-99.99,,,0.00,,2013-03-19 08:42:00,
2013-03-19 02:52:00,26.0,18.0,-100.00,NE,35,8.0,9.0,74,-99.99,,,0.00,,2013-03-19 08:52:00,
2013-03-19 03:02:00,26.0,18.0,-100.00,NE,35,8.0,9.0,74,-99.99,,,0.00,,2013-03-19 09:02:00,
2013-03-19 03:12:00,23.0,16.0,-100.00,NE,40,11.0,14.0,74,-99.99,,,0.00,,2013-03-19 09:12:00,
2013-03-19 03:22:00,23.0,16.0,-100.00,NE,40,11.0,14.0,74,-99.99,,,0.00,,2013-03-19 09:22:00,
2013-03-19 03:32:00,23.0,16.0,-100.00,NNE,30,9.0,14.0,74,-99.99,,,0.00,,2013-03-19 09:32:00,
2013-03-19 03:42:00,23.0,16.0,-100.00,NNE,30,9.0,14.0,74,-99.99,,,0.00,,2013-03-19 09:42:00,
2013-03-19 03:52:00,22.0,16.0,-100.00,NNE,25,12.0,15.0,75,-99.99,,,0.00,,2013-03-19 09:52:00,
2013-03-19 04:03:00,22.0,16.0,-100.00,NNE,25,12.0,15.0,75,-99.99,,,0.00,,2013-03-19 10:03:00,
2013-03-19 04:12:00,21.0,16.0,-100.00,NNE,25,6.0,8.0,78,-99.99,,,0.00,,2013-03-19 10:12:00,
2013-03-19 04:23:00,21.0,16.0,-100.00,NNE,25,6.0,8.0,78,-99.99,,,0.00,,2013-03-19 10:23:00,
2013-03-19 04:32:00,21.0,16.0,-100.00,North,350,3.0,6.0,80,-99.99,,,0.00,,2013-03-19 10:32:00,
2013-03-19 04:42:00,21.0,16.0,-100.00,North,350,3.0,6.0,80,-99.99,,,0.00,,2013-03-19 10:42:00,
2013-03-19 04:52:00,21.0,16.0,-100.00,NE,40,9.0,10.0,80,-99.99,,,0.00,,2013-03-19 10:52:00,
2013-03-19 05:02:00,21.0,16.0,-100.00,NE,40,9.0,10.0,80,-99.99,,,0.00,,2013-03-19 11:02:00,
2013-03-19 05:12:00,20.0,17.0,-100.00,North,-999,0.0,0.0,85,-99.99,,,0.00,,2013-03-19 11:12:00,
2013-03-19 05:22:00,20.0,17.0,-100.00,North,-999,0.0,0.0,85,-99.99,,,0.00,,2013-03-19 11:22:00,
2013-03-19 05:32:00,20.0,16.0,-100.00,North,-999,0.0,0.0,86,-99.99,,,0.00,,2013-03-19 11:32:00,
2013-03-19 05:42:00,20.0,16.0,-100.00,North,-999,0.0,0.0,86,-99.99,,,0.00,,2013-03-19 11:42:00,
2013-03-19 05:52:00,19.0,16.0,-100.00,North,-999,0.0,0.0,87,-99.99,,,0.00,,2013-03-19 11:52:00,
2013-03-19 06:02:00,19.0,16.0,-100.00,North,-999,0.0,0.0,87,-99.99,,,0.00,,2013-03-19 12:02:00,
2013-03-19 06:12:00,19.0,17.0,-100.00,North,-999,0.0,0.0,90,-99.99,,,0.00,,2013-03-19 12:12:00,
2013-03-19 06:22:00,19.0,17.0,-100.00,North,-999,0.0,0.0,90,-99.99,,,0.00,,2013-03-19 12:22:00,
2013-03-19 06:32:00,19.0,16.0,-100.00,North,-999,0.0,0.0,90,-99.99,,,0.00,,2013-03-19 12:32:00,
2013-03-19 06:42:00,19.0,16.0,-100.00,North,-999,0.0,0.0,90,-99.99,,,0.00,,2013-03-19 12:42:00,
2013-03-19 06:52:00,18.0,16.0,-100.00,North,-999,0.0,0.0,91,-99.99,,,0.00,,2013-03-19 12:52:00,
2013-03-19 07:00:00,17.0,15.0,-100.00,North,-999,0.0,0.0,93,-99.99,,,0.00,,2013-03-19 13:00:00,
2013-03-19 07:02:00,18.0,16.0,-100.00,North,-999,0.0,0.0,91,-99.99,,,0.00,,2013-03-19 13:02:00,
2013-03-19 07:12:00,17.0,16.0,-100.00,North,-999,0.0,0.0,93,-99.99,,,0.00,,2013-03-19 13:12:00,
2013-03-19 07:22:00,17.0,16.0,-100.00,North,-999,0.0,0.0,93,-99.99,,,0.00,,2013-03-19 13:22:00,
2013-03-19 07:32:00,17.0,15.0,-100.00,North,-999,0.0,0.0,93,-99.99,,,0.00,,2013-03-19 13:32:00,
2013-03-19 07:42:00,17.0,15.0,-100.00,North,-999,0.0,0.0,93,-99.99,,,0.00,,2013-03-19 13:42:00,
2013-03-19 07:52:00,17.0,15.0,-100.00,North,-999,0.0,0.0,93,-99.99,,,0.00,,2013-03-19 13:52:00,
2013-03-19 08:12:00,16.0,15.0,-100.00,North,-999,0.0,0.0,95,-99.99,,,0.00,,2013-03-19 14:12:00,
2013-03-19 08:22:00,16.0,15.0,-100.00,North,-999,0.0,0.0,95,-99.99,,,0.00,,2013-03-19 14:22:00,
2013-03-19 08:32:00,16.0,15.0,-100.00,North,-999,0.0,0.0,96,-99.99,,,0.00,,2013-03-19 14:32:00,
2013-03-19 08:42:00,16.0,15.0,-100.00,North,-999,0.0,0.0,96,-99.99,,,0.00,,2013-03-19 14:42:00,
2013-03-19 08:52:00,16.0,15.0,-100.00,South,170,2.0,4.0,96,-99.99,,,0.00,,2013-03-19 14:52:00,
2013-03-19 09:02:00,16.0,15.0,-100.00,South,170,2.0,4.0,96,-99.99,,,0.00,,2013-03-19 15:02:00,
2013-03-19 09:12:00,16.0,16.0,-100.00,North,-999,0.0,0.0,97,-99.99,,,0.00,,2013-03-19 15:12:00,
2013-03-19 09:22:00,16.0,16.0,-100.00,North,-999,0.0,0.0,97,-99.99,,,0.00,,2013-03-19 15:22:00,
2013-03-19 09:33:00,20.0,19.0,-100.00,North,-999,0.0,0.0,97,-99.99,,,0.00,,2013-03-19 15:33:00,
2013-03-19 09:43:00,20.0,19.0,-100.00,North,-999,0.0,0.0,97,-99.99,,,0.00,,2013-03-19 15:43:00,
2013-03-19 09:53:00,22.0,21.0,-100.00,North,-999,0.0,0.0,96,-99.99,,,0.00,,2013-03-19 15:53:00,
2013-03-19 10:03:00,22.0,21.0,-100.00,North,-999,0.0,0.0,96,-99.99,,,0.00,,2013-03-19 16:03:00,
2013-03-19 10:13:00,24.0,21.0,-100.00,South,185,1.0,3.0,88,-99.99,,,0.00,,2013-03-19 16:13:00,
2013-03-19 10:23:00,24.0,21.0,-100.00,South,185,1.0,3.0,88,-99.99,,,0.00,,2013-03-19 16:23:00,
2013-03-19 10:33:00,24.0,19.0,-100.00,South,185,3.0,6.0,84,-99.99,,,0.00,,2013-03-19 16:33:00,
2013-03-19 10:43:00,24.0,19.0,-100.00,South,185,3.0,6.0,84,-99.99,,,0.00,,2013-03-19 16:43:00,
2013-03-19 10:53:00,25.0,20.0,-100.00,SSW,200,2.0,5.0,82,-99.99,,,0.00,,2013-03-19 16:53:00,
2013-03-19 11:02:00,25.0,20.0,-100.00,SSW,200,2.0,5.0,82,-99.99,,,0.00,,2013-03-19 17:02:00,
2013-03-19 11:13:00,29.0,22.0,-100.00,SE,135,0.0,2.0,74,-99.99,,,0.00,,2013-03-19 17:13:00,
2013-03-19 11:23:00,29.0,22.0,-100.00,SE,135,0.0,2.0,74,-99.99,,,0.00,,2013-03-19 17:23:00,
2013-03-19 11:34:00,31.0,22.0,-100.00,SSW,195,3.0,6.0,69,-99.99,,,0.00,,2013-03-19 17:34:00,
2013-03-19 11:43:00,31.0,22.0,-100.00,SSW,195,3.0,6.0,69,-99.99,,,0.00,,2013-03-19 17:43:00,
2013-03-19 11:52:00,32.0,20.0,-100.00,SW,225,1.0,3.0,63,-99.99,,,0.00,,2013-03-19 17:52:00,
2013-03-19 12:02:00,32.0,20.0,-100.00,SW,225,1.0,3.0,63,-99.99,,,0.00,,2013-03-19 18:02:00,
2013-03-19 12:13:00,33.0,14.0,-100.00,SSW,205,5.0,9.0,44,-99.99,,,0.00,,2013-03-19 18:13:00,
2013-03-19 12:23:00,33.0,14.0,-100.00,SSW,205,5.0,9.0,44,-99.99,,,0.00,,2013-03-19 18:23:00,
2013-03-19 12:33:00,34.0,13.0,-100.00,SW,215,7.0,12.0,42,-99.99,,,0.00,,2013-03-19 18:33:00,
2013-03-19 12:42:00,34.0,13.0,-100.00,SW,215,7.0,12.0,42,-99.99,,,0.00,,2013-03-19 18:42:00,
2013-03-19 12:52:00,35.0,14.0,-100.00,SW,215,6.0,9.0,40,-99.99,,,0.00,,2013-03-19 18:52:00,
2013-03-19 13:02:00,35.0,14.0,-100.00,SW,215,6.0,9.0,40,-99.99,,,0.00,,2013-03-19 19:02:00,
2013-03-19 13:12:00,38.0,14.0,-100.00,North,-999,0.0,0.0,36,-99.99,,,0.00,,2013-03-19 19:12:00,
2013-03-19 13:22:00,38.0,14.0,-100.00,North,-999,0.0,0.0,36,-99.99,,,0.00,,2013-03-19 19:22:00,
2013-03-19 13:32:00,37.0,11.0,-100.00,South,190,12.0,14.0,34,-99.99,,,0.00,,2013-03-19 19:32:00,
2013-03-19 13:42:00,37.0,11.0,-100.00,South,190,12.0,14.0,34,-99.99,,,0.00,,2013-03-19 19:42:00,
2013-03-19 13:52:00,40.0,12.0,-100.00,SW,215,2.0,7.0,32,-99.99,,,0.00,,2013-03-19 19:52:00,
2013-03-19 14:02:00,40.0,12.0,-100.00,SW,215,2.0,7.0,32,-99.99,,,0.00,,2013-03-19 20:02:00,
2013-03-19 14:12:00,37.0,11.0,-100.00,SW,215,9.0,12.0,33,-99.99,,,0.00,,2013-03-19 20:12:00,
2013-03-19 14:22:00,37.0,11.0,-100.00,SW,215,9.0,12.0,33,-99.99,,,0.00,,2013-03-19 20:22:00,
2013-03-19 14:32:00,38.0,10.0,-100.00,South,170,4.0,8.0,32,-99.99,,,0.00,,2013-03-19 20:32:00,
2013-03-19 14:42:00,38.0,10.0,-100.00,South,170,4.0,8.0,32,-99.99,,,0.00,,2013-03-19 20:42:00,
2013-03-19 14:52:00,39.0,11.0,-100.00,NNE,25,2.0,6.0,32,-99.99,,,0.00,,2013-03-19 20:52:00,
2013-03-19 15:02:00,39.0,11.0,-100.00,NNE,25,2.0,6.0,32,-99.99,,,0.00,,2013-03-19 21:02:00,
2013-03-19 15:11:00,40.0,11.0,-100.00,SSW,195,14.0,17.0,30,-99.99,,,0.00,,2013-03-19 21:11:00,
2013-03-19 15:22:00,40.0,11.0,-100.00,SSW,195,14.0,17.0,30,-99.99,,,0.00,,2013-03-19 21:22:00,
2013-03-19 15:33:00,39.0,10.0,-100.00,West,275,4.0,5.0,30,-99.99,,,-99.99,,2013-03-19 21:33:00,
2013-03-19 15:42:00,39.0,10.0,-100.00,West,275,4.0,5.0,30,-99.99,,,-99.99,,2013-03-19 21:42:00,
2013-03-19 15:52:00,40.0,10.0,-100.00,SSW,195,7.0,13.0,29,-99.99,,,0.00,,2013-03-19 21:52:00,
2013-03-19 16:03:00,40.0,10.0,-100.00,SSW,195,7.0,13.0,29,-99.99,,,0.00,,2013-03-19 22:03:00,
2013-03-19 16:12:00,41.0,11.0,-100.00,South,190,13.0,17.0,29,-99.99,,,0.00,,2013-03-19 22:12:00,
2013-03-19 16:23:00,41.0,11.0,-100.00,South,190,13.0,17.0,29,-99.99,,,0.00,,2013-03-19 22:23:00,
2013-03-19 16:33:00,42.0,12.0,-100.00,SSW,195,12.0,16.0,29,-99.99,,,0.00,,2013-03-19 22:33:00,
2013-03-19 16:43:00,42.0,12.0,-100.00,SSW,195,12.0,16.0,29,-99.99,,,0.00,,2013-03-19 22:43:00,
2013-03-19 16:52:00,42.0,12.0,-100.00,SW,220,6.0,10.0,29,-99.99,,,0.00,,2013-03-19 22:52:00,
2013-03-19 17:02:00,42.0,12.0,-100.00,SW,220,6.0,10.0,29,-99.99,,,0.00,,2013-03-19 23:02:00,
2013-03-19 17:12:00,43.0,13.0,-100.00,SSW,200,9.0,11.0,29,-99.99,,,0.00,,2013-03-19 23:12:00,
2013-03-19 17:22:00,43.0,13.0,-100.00,SSW,200,9.0,11.0,29,-99.99,,,0.00,,2013-03-19 23:22:00,
2013-03-19 17:32:00,43.0,13.0,-100.00,SSW,200,9.0,11.0,29,-99.99,,,0.00,,2013-03-19 23:32:00,
2013-03-19 17:42:00,43.0,13.0,-100.00,SSW,200,9.0,11.0,29,-99.99,,,0.00,,2013-03-19 23:42:00,
2013-03-19 17:52:00,43.0,13.0,-100.00,SW,225,7.0,9.0,29,-99.99,,,0.00,,2013-03-19 23:52:00,
2013-03-19 18:02:00,43.0,13.0,-100.00,SW,225,7.0,9.0,29,-99.99,,,0.00,,2013-03-20 00:02:00,
2013-03-19 18:12:00,43.0,13.0,-100.00,SSW,195,8.0,9.0,29,-99.99,,,0.00,,2013-03-20 00:12:00,
2013-03-19 18:22:00,43.0,13.0,-100.00,SSW,195,8.0,9.0,29,-99.99,,,0.00,,2013-03-20 00:22:00,
2013-03-19 18:32:00,44.0,14.0,-100.00,South,190,8.0,10.0,29,-99.99,,,0.00,,2013-03-20 00:32:00,
2013-03-19 18:42:00,44.0,14.0,-100.00,South,190,8.0,10.0,29,-99.99,,,0.00,,2013-03-20 00:42:00,
2013-03-19 18:52:00,43.0,13.0,-100.00,South,180,1.0,3.0,29,-99.99,,,0.00,,2013-03-20 00:52:00,
2013-03-19 19:02:00,43.0,13.0,-100.00,South,180,1.0,3.0,29,-99.99,,,0.00,,2013-03-20 01:02:00,
2013-03-19 19:12:00,43.0,14.0,-100.00,SSW,195,9.0,12.0,30,-99.99,,,0.00,,2013-03-20 01:12:00,
2013-03-19 19:22:00,43.0,14.0,-100.00,SSW,195,9.0,12.0,30,-99.99,,,0.00,,2013-03-20 01:22:00,
2013-03-19 19:32:00,43.0,14.0,-100.00,SSW,195,7.0,11.0,30,-99.99,,,0.00,,2013-03-20 01:32:00,
2013-03-19 19:42:00,43.0,14.0,-100.00,SSW,195,7.0,11.0,30,-99.99,,,0.00,,2013-03-20 01:42:00,
2013-03-19 19:52:00,43.0,14.0,-100.00,SE,130,0.0,1.0,30,-99.99,,,0.00,,2013-03-20 01:52:00,
2013-03-19 20:02:00,43.0,14.0,-100.00,SE,130,0.0,1.0,30,-99.99,,,0.00,,2013-03-20 02:02:00,
2013-03-19 20:11:00,40.0,12.0,-100.00,North,-999,0.0,0.0,31,-99.99,,,0.00,,2013-03-20 02:11:00,
2013-03-19 20:22:00,40.0,12.0,-100.00,North,-999,0.0,0.0,31,-99.99,,,0.00,,2013-03-20 02:22:00,
2013-03-19 20:32:00,38.0,11.0,-100.00,North,-999,0.0,0.0,32,-99.99,,,0.00,,2013-03-20 02:32:00,
2013-03-19 20:42:00,38.0,11.0,-100.00,North,-999,0.0,0.0,32,-99.99,,,0.00,,2013-03-20 02:42:00,
2013-03-19 20:52:00,36.0,11.0,-100.00,ENE,60,0.0,3.0,35,-99.99,,,0.00,,2013-03-20 02:52:00,
2013-03-19 21:01:00,36.0,11.0,-100.00,ENE,60,0.0,3.0,35,-99.99,,,0.00,,2013-03-20 03:01:00,
2013-03-19 21:12:00,34.0,10.0,-100.00,North,-999,0.0,0.0,37,-99.99,,,0.00,,2013-03-20 03:12:00,
2013-03-19 21:22:00,34.0,10.0,-100.00,North,-999,0.0,0.0,37,-99.99,,,0.00,,2013-03-20 03:22:00,
2013-03-19 21:33:00,33.0,11.0,-100.00,North,-999,0.0,0.0,39,-99.99,,,0.00,,2013-03-20 03:33:00,
2013-03-19 21:42:00,33.0,11.0,-100.00,North,-999,0.0,0.0,39,-99.99,,,0.00,,2013-03-20 03:42:00,
2013-03-19 21:53:00,33.0,11.0,-100.00,North,-999,0.0,0.0,39,-99.99,,,0.00,,2013-03-20 03:53:00,
2013-03-19 22:02:00,33.0,11.0,-100.00,North,-999,0.0,0.0,39,-99.99,,,0.00,,2013-03-20 04:02:00,
2013-03-19 22:12:00,32.0,11.0,-100.00,SSW,195,1.0,3.0,42,-99.99,,,0.00,,2013-03-20 04:12:00,
2013-03-19 22:22:00,32.0,11.0,-100.00,SSW,195,1.0,3.0,42,-99.99,,,0.00,,2013-03-20 04:22:00,
2013-03-19 22:32:00,31.0,12.0,-100.00,North,-999,0.0,0.0,45,-99.99,,,0.00,,2013-03-20 04:32:00,
2013-03-19 22:43:00,31.0,12.0,-100.00,North,-999,0.0,0.0,45,-99.99,,,0.00,,2013-03-20 04:43:00,
2013-03-19 22:52:00,30.0,12.0,-100.00,North,-999,0.0,0.0,45,-99.99,,,0.00,,2013-03-20 04:52:00,
2013-03-19 23:02:00,30.0,12.0,-100.00,North,-999,0.0,0.0,45,-99.99,,,0.00,,2013-03-20 05:02:00,
2013-03-19 23:12:00,28.0,11.0,-100.00,SSW,195,0.0,1.0,48,-99.99,,,0.00,,2013-03-20 05:12:00,
2013-03-19 23:22:00,28.0,11.0,-100.00,SSW,195,0.0,1.0,48,-99.99,,,0.00,,2013-03-20 05:22:00,
2013-03-19 23:32:00,28.0,11.0,-100.00,North,-999,0.0,0.0,50,-99.99,,,0.00,,2013-03-20 05:32:00,
2013-03-19 23:42:00,28.0,11.0,-100.00,North,-999,0.0,0.0,50,-99.99,,,0.00,,2013-03-20 05:42:00,
2013-03-19 23:52:00,27.0,11.0,-100.00,North,-999,0.0,0.0,50,-99.99,,,0.00,,2013-03-20 05:52:00,